Flag for Germany Past Weather in Neuburg an der Donau, Bavaria, Germany — Yesterday and Last 2 Weeks

Now
57 °F

Broken clouds.


Feels Like: 57 °F
Forecast: 50 / 73 °F
Wind: 3 mph from Northwest

Location: Neuburg / Donau

Current Time: May 25, 2016 at 3:08:57 PM

Latest Report: May 25, 2016 at 2:20 PM


Visibility: N/A

Pressure: 29.98 "Hg

Humidity: 72%

Dew Point: 48 °F

Location of Neuburg an der DonauLocation

Past Weather in Neuburg an der Donau — Graph

°F

Neuburg an der Donau Temperature Yesterday

Maximum temperature yesterday: 52 °F (at 10:20 AM)
Minimum temperature yesterday: 50 °F (at 12:20 AM)
Average temperature yesterday: 51 °F

High & Low Weather Summary for the Past Weeks

 TemperatureHumidityPressure
High82 °F (May 22, 4:20 PM)100% (May 11, 6:20 AM)30.15 "Hg (May 11, 6:20 AM)
Low36 °F (May 18, 4:20 AM)32% (May 22, 5:20 PM)29.42 "Hg (May 12, 4:20 PM)
Average54 °F77%29.87 "Hg
* Reported May 10 1:20 PM — May 25 1:20 PM, Neuburg an der Donau, Weather by CustomWeather, © 2016

Note: Actual official high and low records may vary slightly from our data, if they occured in-between our weather recording intervals... More about our weather records

Advertising

Neuburg an der Donau Weather History for the Previous 24 Hours

Scroll right to see more
 ConditionsComfort  
Time TempWeatherWind HumidityBarometerVisibility
1:20 PM
Wed, May 25
57 °FPartly sunny.2 mph72%29.98 "HgN/A
12:20 PM55 °FPartly sunny.2 mph77%29.98 "HgN/A
11:20 AM54 °FPartly sunny.5 mph82%29.98 "HgN/A
10:20 AM52 °FLow clouds.6 mph88%29.98 "HgN/A
9:20 AM52 °FLow clouds.5 mph88%29.98 "HgN/A
8:20 AM50 °FDrizzle. Low clouds.2 mph94%29.98 "Hg5 mi
7:20 AM50 °FLow clouds.2 mph94%29.98 "Hg4 mi
6:20 AM50 °FFog.2 mph94%29.95 "Hg3 mi
5:20 AM50 °FFog.3 mph94%29.95 "Hg2 mi
4:50 AM50 °FFog.2 mph94%29.95 "Hg2 mi
4:20 AM50 °FDrizzle. Low clouds.1 mph94%29.95 "Hg3 mi
3:20 AM50 °FLow clouds.5 mph94%29.95 "Hg4 mi
2:20 AM50 °FLow clouds.3 mph94%29.98 "Hg4 mi
1:20 AM50 °FLow clouds.6 mph94%29.98 "Hg4 mi
12:20 AM50 °FLow clouds.6 mph94%29.98 "Hg4 mi
11:20 PM
Tue, May 24
50 °FLow clouds.7 mph94%29.98 "Hg4 mi
10:20 PM50 °FLow clouds.7 mph94%29.98 "Hg6 mi
9:20 PM50 °FLow clouds.8 mph94%29.95 "Hg6 mi
8:20 PM50 °FDrizzle. Fog.9 mph94%29.95 "Hg3 mi
7:20 PM50 °FDrizzle. Fog.9 mph94%29.95 "Hg2 mi
7:01 PM50 °FDrizzle. Fog.12 mph94%29.95 "Hg3 mi
6:20 PM52 °FPartly sunny.10 mph88%29.95 "HgN/A
5:20 PM52 °FLight rain. Mostly cloudy.12 mph88%29.92 "HgN/A
4:20 PM52 °FLight rain. Mostly cloudy.14 mph94%29.92 "HgN/A
3:20 PM52 °FDrizzle. Mostly cloudy.16 mph94%29.92 "Hg4 mi
Weather by CustomWeather, © 2016

See weather overviewHow to use our weather pages